Weather in Rybinsk

Russia / Yaroslavl Oblast     58°02′54″N   38°51′30″E
temp.,
°C
wind,
m/s
gust,
m/s
humid.,
%
clouds,
%
prec.,
mm/h
press.,
hPa
HPBL,
m
13 may, thu
thu1300:00+13n129480 1.7 102115
03:00+12e23965 1.7 102062
06:00+14se38925 0.0 1020318
09:00+16sse488098 0.0 1020857
12:00+19se586454 0.1 10191489
15:00+21se575512 0.1 10171642
18:00+14se3696100 6.5 1015269
21:00+13ese259798 14.0 1015118
14 may, fri
fri1400:00+11s37955 0.1 1015174
03:00+9s3895100 0.1 1017217
06:00+10s39935 0.0 1018339
09:00+15s467217 0.0 1018751
12:00+18s4650100 0.0 10171665
15:00+20s354630 0.0 10161874
18:00+19se46647 0.1 1015515
21:00+15se388998 1.8 1014185
15 may, sat
sat1500:00+14se31096100 3.6 1013401
03:00+13ese389889 3.9 1012241
06:00+14sse3996100 0.3 1011314
09:00+18sse237799 0.7 1010350
12:00+22sse476251 0.8 10091212
15:00+21sse4777100 4.3 1007925
18:00+19ssw498293 4.6 1006507
21:00+15s3109163 7.3 1007243
16 may, sun
sun1600:00+14s4129468 0.0 1007319
03:00+13ssw4119648 0.0 1008437
06:00+13ssw4109567 0.0 1008547
09:00+13ssw4991100 0.0 1009656
12:00+16ssw5882100 0.1 1010802
15:00+19sw576651 0.2 10101065
18:00+19ssw587322 0.3 10091065
21:00+14ssw399374 1.6 1010220
17 may, mon
mon1700:00+13ssw389711 0.8 1011198
03:00+12ssw269815 0.8 1012136
06:00+13sw26952 0.0 1013176
09:00+18sw3478100 0.0 1014561
12:00+21sw3562100 0.0 10151124
15:00+22sw2356100 0.0 10151289
18:00+22s1267100 0.0 1014439
21:00+16se35886 0.0 101485